Regional Weather Roundup
Issued by NWS

Home | Current Version | Previous Version | Text Only | Print | Product List | Glossary Off
Versions: 1 2 3 4 5 6 7 8 9 10 11 12 13 14 15 16 17 18 19 20 21 22 23 24 25 26 27 28 29 30 31 32 33 34 35 36 37 38 39 40 41 42 43 44 45 46 47 48 49 50

000
ASUS43 KDTX 271310
RWRMI
MICHIGAN HOURLY REGIONAL WEATHER ROUNDUP
NATIONAL WEATHER SERVICE DETROIT/PONTIAC MI
800 AM EST TUE JAN 27 2015

NOTE: "FAIR" INDICATES FEW OR NO CLOUDS BELOW 12,000 FEET WITH NO
SIGNIFICANT WEATHER AND/OR OBSTRUCTION TO VISIBILITY.

MIZ047>049-052>055-059>063-066>070-074>076-081>083-271400-
SOUTHEAST LOWER MICHIGAN

CITY           SKY/WX    TMP DP  RH WIND       PRES   REMARKS
ADRIAN         MOCLDY    15  10  80 NE7       30.07R WCI   5
ALMA           PTCLDY    11   8  86 N3        30.11R
ANN ARBOR      PTCLDY    13   8  81 N7        30.06R WCI   3
BAD AXE        CLOUDY     9   6  89 CALM      30.08R
CARO           PTCLDY    12   8  83 NW3       30.09R
DETROIT CITY   FAIR      15   8  73 N3        30.06R
DETROIT        PTCLDY    12   8  84 NW3       30.08R
FLINT          PTCLDY    11   5  77 NW3       30.08R
GROSSE ILE     CLEAR     12   9  85 N5        30.06R WCI   4
HILLSDALE      CLOUDY    16  12  85 CALM      30.03R
HOWELL         PTCLDY     9   7  92 CALM      30.06R

CITY           SKY/WX    TMP DP  RH WIND       PRES   REMARKS
JACKSON        MOCLDY    14  10  84 N3        30.06R
LAMBERTVILLE   PTCLDY    14  10  85 CALM      30.07R
LANSING        PTCLDY    14  10  84 N3        30.10R
LAPEER         FAIR       1  -2  86 CALM      30.07R
MASON          PTCLDY    13  10  84 N3        30.08R
MT. CLEMENS    PTCLDY    10   6  84 CALM      30.04R
PONTIAC        PTCLDY     9   5  84 NW6       30.04R WCI  -1
PORT HOPE        N/A     20  13  74 NE16      30.07R WCI   6
PORT HURON     PTCLDY     5   3  92 NW3       30.06R
TRI CITIES     MOCLDY    16   9  74 N7        30.11R WCI   6
TROY           CLEAR     16   9  73 NW6       30.08R WCI   7
SAGINAW HB     MOCLDY    14  12  92 NW3       30.10R
$$
MIZ043>046-050>051-056>058-064>065-071>073-077>080-271400-
SOUTHWEST LOWER MICHIGAN

CITY           SKY/WX    TMP DP  RH WIND       PRES   REMARKS
BATTLE CREEK   CLOUDY    19  12  74 NE9       30.07R WCI   8
BENTON HARBOR  CLOUDY    19  12  74 NE5       30.07R WCI  12
BIG RAPIDS     CLEAR     15  10  83 CALM      30.09R
COLDWATER      MOCLDY    17  12  82 NE3       30.05R
FREMONT        FAIR      16   8  70 CALM      30.11R
HOLLAND        PTCLDY    19  11  70 NE6       30.10R WCI  11
GRAND RAPIDS   MOCLDY    16  11  80 NE7       30.10R WCI   6
IONIA          FAIR      17  13  84 N5        30.09R WCI  10
KALAMAZOO      CLOUDY    19  11  70 N7        30.07R WCI  10
LUDINGTON      CLEAR     12   8  84 CALM      30.13R
MARSHALL       MOCLDY    15  11  83 NE3       30.06R
MOUNT PLEASANT PTCLDY     9   6  88 CALM      30.11R
MUSKEGON       CLEAR     16  10  77 NE5       30.12R WCI   9
SOUTH HAVEN    MOCLDY    20  13  76 E3        30.08R
$$
MIZ016>042-271400-
NORTHERN LOWER MICHIGAN

CITY           SKY/WX    TMP DP  RH WIND       PRES   REMARKS
ALPENA         PTCLDY     8   4  83 N7        30.16R WCI  -3
BEAVER ISLAND  CLEAR      9   6  87 CALM      30.18R
BELLAIRE       CLEAR      7   4  88 CALM      30.17R
CADILLAC       PTCLDY     9   6  87 CALM      30.08R
CHARLEVOIX     CLEAR     15  12  86 E7        30.19R WCI   5
FRANKFORT      CLEAR     11   9  92 NE3       30.15R
GAYLORD        CLOUDY    13  11  92 NE8       30.10R FOG     WCI   2
GRAYLING       FLURRIES   6   3  88 CALM      30.12R
HARBOR SPRINGS CLEAR     12   9  86 CALM      30.17R
HOUGHTON LAKE  FAIR      11   8  88 NE7       30.10R WCI   0
MANISTEE       CLEAR     14   9  79 SE3       30.13R
OSCODA         FLURRIES  19  13  80 N9        30.12R WCI   7
PELLSTON       CLEAR      6   2  83 CALM      30.18R
ROGERS CITY    PTCLDY    15   8  76 NE7       30.18R WCI   5
TRAVERSE CITY  PTCLDY     9   6  88 CALM      30.14R
$$
MIZ007>008-015-271400-
EASTERN UPPER MICHIGAN

CITY           SKY/WX    TMP DP  RH WIND       PRES   REMARKS
KINROSS        PTCLDY     3   0  85 E6        30.19R WCI  -8
MACKINAC ISLAN PTCLDY    10   4  76 NE12      30.19R WCI  -5
NEWBERRY       PTCLDY     2  -1  86 NE3       30.17R
S. S. MARIE    PTCLDY     4  -3  73 E3        30.20R
MUNISING         N/A     10   2  69 SW3       30.17R
$$
MIZ004>006-011>014-085-271400-
CENTRAL UPPER MICHIGAN

CITY           SKY/WX    TMP DP  RH WIND       PRES   REMARKS
MANISTIQUE     PTCLDY     6   1  82 NE3       30.17R
ESCANABA       CLOUDY    18  12  79 NE6       30.15R WCI   9
MENOMINEE      CLOUDY    19  18  93 CALM      30.15R
SAWYER-GWINN   CLOUDY    16  14  93 S3        30.12R FOG
$$
MIZ001>003-009>011-084-271400-
WESTERN UPPER MICHIGAN

CITY           SKY/WX    TMP DP  RH WIND       PRES   REMARKS
IRON MOUNTAIN  CLOUDY    14  11  87 CALM      30.11R
HOUGHTON       CLEAR     13  10  88 CALM      30.11R
COPPER HARBOR    N/A     18  14  84 SW7       30.14R WCI   9
IRONWOOD       CLOUDY    19  19 100 CALM      30.07R
$$

ABBREVIATIONS USED IN REMARKS
   TC - TEMPERATURE IN CELSIUS
  WCI - WIND CHILL INDEX
   HX - HEAT INDEX
  VSB - VISIBILITY



USA.gov is the U.S. government's official web portal to all federal, state and local government web resources and services.